Location: D?uga
(50.2667°N, 19.7833°E)
Time: 00:31:31
(UTC+00:00)

Cosmos 1833 Rocket - Pass Details

Date: 23 May 2024
Orbit: 831 x 839 km, 71.0° (Epoch: 18 June)

Event Time Altitude Azimuth Distance (km) Brightness Sun altitude
Exits shadow 00:08:16 - 256° (WSW) 2,576 4.9 -16.3°
Reaches altitude 10° 00:08:42 10° 258° (WSW) 2,442 4.8 -16.3°
Maximum altitude 00:13:27 28° 317° (NW) 1,535 4.3 -16.0°
Drops below altitude 10° 00:18:14 10° 15° (NNE) 2,456 6.4 -15.7°
Sets 00:21:03 0° 27° (NNE) 3,394 7.8 -15.5°
